User: anonymous   Login
Location: Unspecified
(39.0670°S, 0.0000°E)
Time: 06:55:04
(UTC+00:00)
Language:

QB50P2 - Orbit

View from above orbital plane
View from above orbital plane
View from above satellite
View from above satellite

Ground track
Ground track

The orbit data is extracted from the following two-line orbital elements,

1 40032U 14033Y   19236.72359366 +.00000139 +00000-0 +21016-4 0  9999
2 40032 097.8953 154.3435 0011420 188.6956 171.4064 14.88502191280695
Epoch (UTC): 24 August 2019 17:21:58
Eccentricity: 0.0011420
inclination: 97.8953°
perigee height: 594 km
apogee height: 610 km
right ascension of ascending node: 154.3435°
argument of perigee: 188.6956°
revolutions per day: 14.88502191
mean anomaly at epoch: 171.4064°
orbit number at epoch: 28069

The dashed part of the orbit path shows where the satellite is in the earth's shadow,  

DLR